星链-30280 (STARLINK-30280 )

导读

STARLINK-30280是美国太空探索技术公司(SpaceX)星链星座的一员,于2023年8月17日发射入轨。星链计划旨在构建全球卫星互联网星座,为全球偏远地区、海洋和航空等领域提供高速低延迟网络服务,该卫星的发射进一步扩充了星链星座的在轨卫星数量,提升了星座的服务覆盖能力。

Basic Information
目录编号:
57643
目录名称:
STARLINK-30280
国际标识:
2023-122M
轨道中心:
EARTH
卫星名称:
星链-30280
卫星全名:
星链-30280 (STARLINK-30280 )
卫星状态:
在轨 (已飞行1115 天)
发射日期:
2023-08-17 UTC
国别 :
美国 (US)
星等 :
--
Orbit Information
数据来源 国际轨道数据 AOE轨道数据
星历时间 2026-09-05T11:21:55+0800
11小时前
查看轨道信息
2026-09-04T16:00:00+0800
1天前
查看轨道信息
半长轴 6861.208km 6861.186km
偏心率 0.0001678 0.0001445
轨道倾角 43.004° 43.002°
近地点辐角 260.625° 259.134°
升交点赤经 158.887° 163.452°
平近点角 99.441° 338.468°
近地点 481.919km 482.057km
远地点 484.223km 484.041km
周期 94.267分钟 94.267分钟
每日圈数 15.275728 15.275801
Detailed Information
固有亮度:
5
最大亮度:
0.3
卫星平台:
Starlink v2.0 mini
覆盖范围:
全球
运营商:
太空探索技术公司
运营商所在国:
美国
制造商(研发单位):
太空探索技术公司
制造商所在国:
美国
使用方式:
暂无
Satellite Introduction
星链(Starlink)计划是由太空探索技术公司(SpaceX)提出的一个巨型低轨卫星互联网星座项目,计划在2019年至2024年间在太空搭建由约1.2万颗卫星组成的“星链”网络,其中1584颗将部署在地球上空550千米处的近地轨道,并从2020年开始工作。该卫星仍在工作。
2D Orbit Map
3D Orbit Map
Orbit Altitude Analysis Chart
Orbit Inclination Analysis Chart
Orbit Comprehensive Analysis Chart
View Comprehensive Chart